www.pogodaiklimat.ru

Погода и климат >> Архив погоды >> Россия >> Приморский край >> Кавалерово


ПОГОДА в Кавалерово

  • Прогноз погоды в Кавалерово
  • Монитор погоды в Кавалерово

АРХИВ ПОГОДЫ в Кавалерово

Время (UTC), дата Ветер
(напр.,м/с)
 
Видим.   Явления Облачность Т
(С)
Тd
(С)
f
(%)
Тe
(С)
Тes
(С)
Комфортность P
(гПа)
Po
(гПа)
Тmin
(С)
Tmax
(С)
R
(мм)
R24
(мм)
S
(см)
00 15.07 ЮВ 2 2000 м слаб. морось {дождь} 10/10 300 м
[St]
+15.5 +14.9 96 +15 +15 1012.4 988.5
03 15.07 ЮВ 2 4000 м слаб. морось 10 баллов +16.4 +15.1 92 +16 +16 1014.9 990.7
06 15.07 В 1 50 км 10 баллов +16.9 +15.2 90 +18 +18 1014.8 990.7
09 15.07 ЮВ 3 50 км {морось} 10/10 300 м
[St]
+16.1 +15.0 93 +16 +16 1014.9 990.7 +17.0 1
12 15.07 ЮВ 1 50 км {морось} 10/10 300 м
[St]
+15.2 +14.1 93 +16 +16 1015.1 991.2
15 15.07 З 1 50 км 10 баллов +14.6 +14.1 97 +15 +15 1016.3 992.0
18 15.07 штиль 0 50 км 10 баллов +14.3 +13.8 97 +14 +14 1016.4 992.0
21 15.07 штиль 0 2000 м дымка 10/10 300 м
[St]
+14.7 +14.0 96 +14 +14 1015.7 991.7 +14.2
00 16.07 штиль 0 2000 м слаб. морось 10/10 300 м
[St]
+16.3 +14.3 88 +16 +16 1016.1 992.2
03 16.07 З 1 50 км 10 баллов +19.4 +15.1 76 +22 +22 комфорт 1015.9 992.0
06 16.07 В 1 50 км 10 баллов +20.1 +15.9 77 +24 +24 комфорт 1014.5 990.7
09 16.07 ЮВ 3 50 км 9/9 600 м
[Sc]
+20.2 +16.6 80 +23 +24 комфорт 1014.5 990.7 +21.1 0.3
12 16.07 В 1 50 км 8/4 600 м
[Sc Ac trans Ci fib]
+17.1 +15.9 93 +18 +18 1013.7 989.9
15 16.07 штиль 0 50 км 7 баллов +14.7 +14.2 97 +14 +14 1015.0 990.7
18 16.07 Ю 1 1000 м дымка 10 баллов +15.3 +15.0 98 +16 +16 1014.9 990.7
21 16.07 штиль 0 200 м туман ?/? +15.6 +15.6 100 +15 +15 1013.1 989.2 +14.6
00 17.07 ЮВ 1 50 км {туман} 8/3 300 м
[St Ac trans Ci fib]
+20.9 +16.6 76 +26 +32 душно 1011.8 988.4
03 17.07 В 3 50 км 7 баллов +23.9 +17.9 69 +28 +33 душно 1011.4 988.0
06 17.07 В 4 50 км 2 балла +25.4 +18.3 65 +30 +36 душно 1010.0 986.7
09 17.07 ЮВ 3 50 км 8/8 1000 м
[Sc]
+22.2 +18.1 78 +27 +27 душно 1008.5 985.3 +25.5
12 17.07 ЮВ 2 50 км 6/6 600 м
[Sc]
+18.3 +16.6 90 +19 +19 1009.7 986.2
15 17.07 ЮВ 1 50 км 10 баллов +17.5 +16.2 92 +19 +19 1012.0 988.0
18 17.07 С 1 50 км 10 баллов +16.6 +16.1 97 +17 +17 1010.7 986.7
21 17.07 штиль 0 50 км 10/10 300 м
[Sc]
+16.8 +16.5 98 +17 +17 1008.9 985.3 +15.7
00 18.07 ЮВ 1 50 км 10/3 600 м
[Sc Ci fib]
+23.3 +18.6 75 +29 +37 душно 1007.7 984.6
03 18.07 С 1 50 км 10 баллов +27.3 +19.6 63 +33 +33 очень
душно
1007.1 984.0
06 18.07 ЮВ 3 50 км в посл. час гроза 10 баллов +25.4 +20.4 74 +31 +31 очень
душно
1007.2 984.0
09 18.07 штиль 0 50 км в посл. час гроза 10/6 1000 м
[Cu med, cong Ci fib]
+24.3 +20.8 81 +30 +30 очень
душно
1005.9 982.7 +29.5 0.3
12 18.07 штиль 0 50 км {гроза} 10/3 600 м
[Sc Ci fib]
+19.3 +18.8 97 +21 +21 комфорт 1007.0 983.6
15 18.07 СЗ 1 50 км 6 баллов +17.1 +16.9 99 +18 +18 1007.9 984.0
18 18.07 штиль 0 50 км 6 баллов +16.3 +16.1 99 +16 +16 1008.0 984.0
21 18.07 штиль 0 50 км 8/3 600 м
[Sc Ci fib]
+17.5 +17.3 99 +17 +19 1007.4 983.9 +15.3
00 19.07 З 1 50 км 10/5 600 м
[Sc Ci fib]
+25.5 +19.3 69 +31 +36 очень
душно
1006.7 983.8
03 19.07 З 2 50 км 10 баллов +28.4 +19.9 60 +35 +35 очень
душно
1007.0 984.0
06 19.07 З 2 50 км 7 баллов +29.0 +19.9 58 +35 +39 очень
душно
1005.6 982.7
09 19.07 З 2 50 км 5/3 1000 м
[Cu med, cong Ci fib]
+28.5 +19.1 57 +34 +35 очень
душно
1007.0 984.0 +30.3
12 19.07 СЗ 2 50 км 3/3 600 м
[Sc]
+20.5 +19.3 93 +25 +25 комфорт 1008.5 985.2
15 19.07 З 1 50 км ясно +17.0 +16.7 98 +18 +18 1010.7 986.7
18 19.07 С 1 50 км ясно +14.6 +14.4 99 +15 +15 1012.2 988.0
21 19.07 В 1 4000 м дымка ясно +16.8 +16.7 99 +18 +19 1011.7 988.0 +13.6
00 20.07 В 1 50 км ясно +25.2 +19.8 72 +31 +44 очень
душно
1011.2 988.2
03 20.07 В 3 50 км 2 балла +30.3 +19.3 52 +36 +48 очень
душно
1010.9 988.0
06 20.07 ЮВ 4 50 км 2 балла +30.3 +20.5 56 +37 +43 очень
душно
1010.9 988.0
09 20.07 ЮВ 3 50 км 3/3 1000 м
[Sc]
+25.4 +19.3 69 +31 +32 очень
душно
1011.3 988.0 +31.3
12 20.07 ЮВ 4 50 км 6/6 600 м
[Sc]
+18.2 +16.7 91 +18 +18 1013.3 989.6
15 20.07 ЮВ 2 50 км 6 баллов +16.6 +16.1 97 +17 +17 1014.8 990.7
18 20.07 ЮВ 2 4000 м дымка 7 баллов +16.5 +15.9 96 +17 +17 1016.2 992.0
21 20.07 Ю 1 2000 м дымка 10/10 600 м
[Sc]
+16.7 +16.3 97 +18 +18 1015.0 991.2 +16.4
00 21.07 ЮВ 1 2000 м слаб. морось 10/10 200 м
[St]
+17.9 +17.4 97 +19 +19 1015.0 991.3
03 21.07 ЮВ 2 50 км 10 баллов +21.2 +18.9 87 +26 +26 душно 1014.4 990.7
06 21.07 В 3 4000 м слаб. морось 10 баллов +20.3 +19.0 92 +24 +24 комфорт 1014.5 990.7
09 21.07 ЮВ 2 50 км {морось} 10/10 300 м
[Sc]
+19.8 +18.5 92 +23 +23 комфорт 1013.1 989.3 +21.9 0.1
12 21.07 ЮВ 3 50 км {морось} 10/10 300 м
[Sc]
+19.3 +18.0 92 +22 +22 комфорт 1012.1 988.6
15 21.07 В 3 50 км 10 баллов +18.9 +17.4 91 +20 +20 1011.9 988.0
18 21.07 В 5 50 км 10 баллов +18.9 +17.0 89 +20 +20 1009.1 985.3

 

Местоположение метеостанции Кавалерово (Приморский край, Россия): широта 44.25 долгота 135.00 высота над уровнем моря 206 м.

В архиве по умолчанию представлена погода в Кавалерово за последнюю неделю. Архивные данные за месяц целиком и за предыдущие месяцы, начиная с января 2011 года, Вы можете получить, выбрав интересующий диапазон дат из раскрывающегося списка и нажав кнопку "Ввод!".


*Определитесь, кто Вы:
робот инопланетянин человек

Внимание! Время в таблицах - всемирное. Для получения местного времени необходимо прибавить поправку, которая равна 10 ч.

Смотрите также архив погоды в соседних городах и на ближайших метеорологических станциях:

Погода в Богополе (Приморский край, Россия) (32 км)
Погода в Ольге (Приморский край, Россия) (61 км)
Погода в Рудной Пристани (Приморский край, Россия) (65 км)
Погода в Дальнегорске (Приморский край, Россия) (90 км)
Погода в Чугуевке (Приморский край, Россия) (96 км)
Погода в Лучегорске (Приморский край, Россия) (99 км)
Погода в Лазо (Приморский край, Россия) (135 км)
Погода в Мельничном (Приморский край, Россия) (139 км)
Погода в Малиново (Приморский край, Россия) (145 км)
Погода в Тернее (Приморский край, Россия) (152 км)

Пояснения к столбцам:

Ветер - указаны скорость ветра в м/с - средняя за 10 мин, порывы в срок и между сроками (в фигурных скобках) и направление, откуда дует ветер: С - северный, СВ - северо-восточный, В - восточный, ЮВ - юго-восточный, Ю - южный, ЮЗ - юго-западный, З - западный, СЗ - северо-западный.
Видимость - горизонтальная дальность видимости в метрах или километрах. При видимости от 1 до 10 км при отсутствии осадков обычно наблюдается дымка, при ухудшении видимости до 1 км и менее - туман. В сухую погоду видимость может ухудшаться дымом, пылью или мглою.
Явления - указаны атмосферные явления, наблюдавшиеся в срок или в последний час перед сроком; фигурными скобками обозначены явления, наблюдавшиеся между сроками (за 1-3 часа до срока); квадратными скобками обозначены град или гололедные отложения с указанием их диаметра в мм.
Облачность - указаны через наклонную черту общая и нижняя облачность в баллах и высота нижней границы облаков в метрах; квадратными скобками обозначены формы облаков: Ci - перистые, Cs - перисто-слоистые, Cc - перисто-кучевые, Ac - высококучевые, As - высокослоистые, Sc - слоисто-кучевые, Ns - слоисто-дождевые, Cu - кучевые, Cb - кучево-дождевые. Подробнее классификацию облаков см. в Атласе облаков (PDF).
T - Температура воздуха - температура, измеренная на высоте 2 м над землей.
Td - Температура точки росы - температура, при понижении до которой содержащийся в воздухе водяной пар достигнет насыщения.
f - Относительная влажность воздуха - влажноcть воздуха, измеренная на высоте 2 м над землей.
Te - Эффективная температура - температура, которую ощущает одетый по сезону человек в тени. Характеристика душности погоды. При расчете учитывается влияние влажности воздуха и скорости ветра на теплоощущения человека.
Tes - Эффективная температура на солнце - температура, которую ощущает человек, с поправкой на солнечный нагрев. Характеристика знойности погоды. Зависит от высоты солнца над горизонтом, облачности и скорости ветра. Ночью, в пасмурную погоду, а также при ветре 12 м/с и более поправка равна нулю.
P - Атмосферное давление - приведенное к уровню моря атмосферное давление.
Po - Атмосферное давление - измеренное на уровне метеостанции атмосферное давление.
Tmin - Минимальная температура - минимум температуры воздуха на высоте 2 м над землей.
Tmax - Максимальная температура - максимум температуры воздуха на высоте 2 м над землей.
R - Количество осадков - Количество выпавших осадков за период времени, мм. При наведении курсора мыши на число - период времени, за который выпало указанное количество осадков.
R24 - Количество осадков - Количество выпавших осадков за 24 часа, мм.
S - Снежный покров - Высота снежного покрова, см. При наведении курсора мыши на число - состояние снежного покрова и степень покрытия местности в баллах.